Location: Altenhof
(50.2418°N, 10.8789°E)
Time: 20:07:26
(UTC+00:00)

USA 116 - Pass Details

Date: 18 February 2020
Orbit: 405 x 834 km, 97.9° (Epoch: 18 November)

Event Time Altitude Azimuth Distance (km) Brightness Sun altitude
Rises 04:19:55 0° 150° (SSE) 2,392 7.3 -20.3°
Reaches altitude 10° 04:22:00 10° 144° (SE) 1,500 6.3 -20.0°
Maximum altitude 04:25:00 43° 71° (ENE) 591 4.3 -19.5°
Drops below altitude 10° 04:27:59 10° 358° (N) 1,478 5.9 -19.0°
Sets 04:30:01 0° 352° (N) 2,353 6.9 -18.7°
